Weather History for KFWN - December, 2012

Change the Weather History Date:

Monday, December 3, 2012

  Actual Average Record
Temperature  
Mean Temperature 48 °F -  
Max Temperature 61 °F 43 °F - (-1)
Min Temperature 35 °F 22 °F - (-1)
Degree Days  
Heating Degree Days 17    
Moisture  
Dew Point 40 °F    
Average Humidity 89    
Maximum Humidity 100    
Minimum Humidity 54    
Precipitation  
Precipitation 0.00 in - - ()
Sea Level Pressure  
Sea Level Pressure 30.19 in    
Wind  
Wind Speed 1 mph (WSW)    
Max Wind Speed 8 mph    
Max Gust Speed -    
Visibility 3 miles    
Events Fog    
Averages and records for this station are not official NWS values.
T = Trace of Precipitation, MM = Missing Value Source: NWS Daily Summary

Daily Weather History Graph

Daily Weather History Graph

Search for Another Location

Airport or City:

Trip Planner

Search our weather history database for the weather conditions in past years. The results will help you decide how hot, cold, wet, or windy it might be!

Date:

Astronomy

Dec. 03, 2012 Rise Set
Actual Time 7:07 AM EST 4:29 PM EST
Civil Twilight 6:36 AM EST 5:00 PM EST
Nautical Twilight 6:01 AM EST 5:35 PM EST
Astronomical Twilight 5:28 AM EST 6:08 PM EST
Moon 9:15 PM EST (12/3) 10:27 AM EST (12/3)
Length of Visible Light 10h 24m
Length of Day
9h 22m
Waning Gibbous, 78% of the Moon is Illuminated
Dec 3
Waning Gibbous
Dec 6
Last Quarter
Dec 13
New
Dec 20
First Quarter
Dec 28
Full

Hourly Weather History & Observations

Time (EST) Temp. Windchill Dew Point Humidity Pressure Visibility Wind Dir Wind Speed Gust Speed Precip Events Conditions
12:53 AM 46.0 °F 43.9 °F 43.0 °F 89% 30.11 in 3.0 mi SW 4.6 mph - N/A   Overcast
1:40 AM 46.4 °F 45.2 °F 42.8 °F 87% 30.10 in 2.5 mi SSW 3.5 mph - N/A   Overcast
1:53 AM 46.0 °F - 44.1 °F 93% 30.12 in 2.5 mi Calm Calm - N/A   Overcast
2:01 AM 46.4 °F 45.2 °F 42.8 °F 87% 30.11 in 3.0 mi SSW 3.5 mph - N/A   Overcast
2:31 AM 46.4 °F - 44.6 °F 93% 30.11 in 2.5 mi Calm Calm - N/A   Overcast
2:53 AM 45.0 °F - 43.0 °F 93% 30.12 in 2.5 mi Calm Calm - N/A   Overcast
3:12 AM 42.8 °F - 41.0 °F 93% 30.12 in 1.2 mi Calm Calm - N/A   Mostly Cloudy
3:38 AM 42.8 °F - 41.0 °F 93% 30.12 in 0.5 mi Calm Calm - N/A Fog Fog
3:44 AM 42.8 °F - 41.0 °F 93% 30.12 in 1.0 mi Calm Calm - N/A   Partly Cloudy
3:53 AM 42.1 °F - 41.0 °F 96% 30.13 in 0.5 mi Calm Calm - N/A Fog Fog
3:59 AM 42.8 °F - 39.2 °F 87% 30.12 in 0.2 mi Calm Calm - N/A Fog Fog
4:02 AM 41.0 °F - 39.2 °F 93% 30.12 in 0.2 mi Calm Calm - N/A Fog Fog
4:31 AM 37.4 °F - 35.6 °F 93% 30.13 in 0.2 mi Calm Calm - N/A Fog Fog
4:41 AM 37.4 °F - 35.6 °F 93% 30.14 in 0.2 mi Calm Calm - N/A Fog Fog
4:50 AM 37.4 °F - 35.6 °F 93% 30.14 in 0.2 mi Calm Calm - N/A Fog Fog
4:53 AM 37.0 °F - 36.0 °F 96% 30.15 in 0.2 mi Calm Calm - N/A Fog Fog
5:00 AM 35.6 °F - 35.6 °F 100% 30.14 in 0.2 mi Calm Calm - N/A Fog Fog
5:11 AM 35.6 °F - 33.8 °F 93% 30.15 in 0.2 mi Calm Calm - N/A Fog Fog
5:53 AM 37.0 °F 34.5 °F 36.0 °F 96% 30.16 in 0.2 mi WSW 3.5 mph - N/A Fog Fog
6:53 AM 39.0 °F 36.8 °F 37.9 °F 96% 30.18 in 0.2 mi SW 3.5 mph - N/A Fog Fog
7:53 AM 39.0 °F 36.8 °F 37.9 °F 96% 30.19 in 0.2 mi West 3.5 mph - N/A Fog Fog
8:53 AM 41.0 °F - 39.9 °F 96% 30.21 in 0.2 mi Calm Calm - N/A Fog Fog
9:53 AM 44.1 °F - 43.0 °F 96% 30.21 in 0.2 mi Calm Calm - N/A Fog Fog
10:39 AM 48.2 °F - 46.4 °F 93% 30.21 in 1.5 mi Calm Calm - N/A   Mostly Cloudy
10:43 AM 48.2 °F - 46.4 °F 93% 30.20 in 2.0 mi Calm Calm - N/A   Mostly Cloudy
10:49 AM 50.0 °F - 48.2 °F 94% 30.21 in 3.0 mi Calm Calm - N/A   Partly Cloudy
10:50 AM 50.0 °F - 48.9 °F 96% 30.21 in 3.0 mi Calm Calm - N/A   Partly Cloudy
11:53 AM 59.0 °F - 46.0 °F 62% 30.20 in 10.0 mi Variable 4.6 mph - N/A   Mostly Cloudy
12:53 PM 59.0 °F - 45.0 °F 60% 30.18 in 10.0 mi NW 8.1 mph - N/A   Clear
1:53 PM 61.0 °F - 45.0 °F 56% 30.18 in 10.0 mi Variable 3.5 mph - N/A   Clear
2:53 PM 61.0 °F - 44.1 °F 54% 30.19 in 10.0 mi Calm Calm - N/A   Clear
3:53 PM 55.9 °F - 44.1 °F 64% 30.20 in 10.0 mi Calm Calm - N/A   Clear
4:53 PM 50.0 °F - 43.0 °F 77% 30.22 in 10.0 mi Calm Calm - N/A   Clear
5:53 PM 45.0 °F - 41.0 °F 86% 30.25 in 10.0 mi Calm Calm - N/A   Clear
6:53 PM 39.0 °F - 37.9 °F 96% 30.27 in 6.0 mi Calm Calm - N/A   Clear
7:53 PM 39.9 °F - 37.0 °F 89% 30.27 in 8.0 mi Calm Calm - N/A   Scattered Clouds
8:53 PM 39.0 °F - 37.9 °F 96% 30.27 in 6.0 mi Calm Calm - N/A   Overcast
9:53 PM 39.0 °F - 37.9 °F 96% 30.26 in 5.0 mi Calm Calm - N/A   Mostly Cloudy
10:39 PM 37.4 °F - 35.6 °F 93% 30.27 in 1.5 mi Calm Calm - N/A   Clear
10:43 PM 37.4 °F - 35.6 °F 93% 30.26 in 0.8 mi Calm Calm - N/A   Clear
10:51 PM 37.4 °F - 35.6 °F 93% 30.26 in 1.8 mi Calm Calm - N/A   Clear
10:53 PM 37.0 °F - 35.1 °F 93% 30.27 in 3.0 mi Calm Calm - N/A   Clear
11:01 PM 37.4 °F - 35.6 °F 93% 30.27 in 1.8 mi Calm Calm - N/A   Partly Cloudy
11:08 PM 37.4 °F - 35.6 °F 93% 30.27 in 1.0 mi Calm Calm - N/A   Partly Cloudy
11:12 PM 37.4 °F - 35.6 °F 93% 30.27 in 2.0 mi Calm Calm - N/A   Partly Cloudy
11:20 PM 37.4 °F - 35.6 °F 93% 30.27 in 3.0 mi Calm Calm - N/A   Scattered Clouds
11:53 PM 37.9 °F - 36.0 °F 93% 30.27 in 5.0 mi Calm Calm - N/A   Overcast